Details for EasyJet at EDDH




Go Back


Latest METAR
Local Time

EDDH 180620Z VRB02KT 9999 FEW035 SCT280 16/13 Q1021 BECMG 23008KT
18/08/2018, 08:28:31

Description
Results
EasyJet Logo
Number of Pilots based at EDDH
0 Pilots Based here
Number of EasyJet Flights Departed from EDDH
2 Flights Departed
Number of EasyJet Flights Arrived at EDDH
4 Flights Arrived
Number of EasyJet Schedules Departing from EDDH
14 Schedules
Number of EasyJet Schedules Arriving at EDDH
13 Schedules
Number of EasyJet Schedules Departing from EDDH availible today
2 Schedules Today
Number of EasyJet Schedules Arriving at EDDH availible today
2 Schedules Today
Average Landing Rate at EDDH
-160 fpm
EasyJet Average Landing Rate at EDDH
-126 fpm
Total Fuel Purchased at EDDH by EasyJet
7,567.28 kgs / 16,682.83 lbs

Pilots Based at EDDH


Pilot ID
Pilot Name
Pilot Rank
No. of Flights
No. of Flying Hours
There are no pilots assigned to this hub!   Will you be the first?
Content